Home > Weather > Entebbe > Past weeks

Flag for Uganda Past Weather in Entebbe, Uganda — Yesterday and Last 2 Weeks

Now
68 °F

Passing clouds.


Feels Like: 68 °F
Forecast: 62 / 78 °F
Wind: 6 mph from North

Location: Entebbe Airport

Current Time: Jul 30, 2016 at 12:45:20 AM

Latest Report: Jul 30, 2016 at 12:00 AM


Visibility: 6 mi

Pressure: 30.07 "Hg (26.27 "Hg at 1160m altitude)

Humidity: 94%

Dew Point: 66 °F

Location of EntebbeLocation

Past Weather in Entebbe — Graph

°F

Entebbe Temperature Yesterday

Maximum temperature yesterday: 79 °F (at 12:00 PM)
Minimum temperature yesterday: 64 °F (at 4:00 AM)
Average temperature yesterday: 71 °F

High & Low Weather Summary for the Past Weeks

 TemperatureHumidityPressure
High84 °F (Jul 16, 1:00 AM)100% (Jul 17, 6:00 AM)30.15 "Hg (Jul 17, 6:00 AM)
Low64 °F (Jul 15, 6:00 AM)48% (Jul 27, 4:00 PM)29.98 "Hg (Jul 24, 4:00 PM)
Average72 °F79%30.06 "Hg
* Reported Jul 14 11:00 PM — Jul 29 11:00 PM, Entebbe, Weather by CustomWeather, © 2016

Note: Actual official high and low records may vary slightly from our data, if they occured in-between our weather recording intervals... More about our weather records

Advertising

Entebbe Weather History for the Previous 24 Hours

Scroll right to see more
 ConditionsComfort  
Time TempWeatherWind HumidityBarometerVisibility
11:00 PM
Fri, Jul 29
70 °FPassing clouds.5 mph83%30.07 "Hg6 mi
10:00 PM72 °FPassing clouds.6 mph83%30.04 "Hg6 mi
9:00 PM73 °FPassing clouds.7 mph74%30.04 "Hg6 mi
8:00 PM73 °FPassing clouds.8 mph74%30.01 "Hg6 mi
7:00 PM75 °FPassing clouds.8 mph65%30.01 "Hg6 mi
6:00 PM77 °FPassing clouds.12 mph65%30.01 "Hg5 mi
5:00 PM79 °FPassing clouds.12 mph58%30.01 "Hg5 mi
4:00 PM79 °FPassing clouds.10 mph65%30.01 "Hg5 mi
3:00 PM79 °FPassing clouds.9 mph65%30.04 "Hg5 mi
2:00 PM75 °FPassing clouds.7 mph78%30.07 "Hg4 mi
1:00 PM77 °FPassing clouds.8 mph69%30.07 "Hg4 mi
12:00 PM79 °FPassing clouds.5 mph65%30.09 "Hg4 mi
11:00 AM75 °FPartly sunny.6 mph69%30.12 "Hg4 mi
10:00 AM72 °FBroken clouds.5 mph83%30.12 "Hg3 mi
9:00 AM68 °FBroken clouds.7 mph88%30.12 "Hg4 mi
8:00 AM64 °FPartly sunny.5 mph94%30.09 "Hg4 mi
7:00 AM64 °FPartly sunny.6 mph94%30.07 "Hg5 mi
6:00 AM64 °FPassing clouds.2 mph94%30.07 "Hg5 mi
5:00 AM64 °FPassing clouds.5 mph94%30.04 "Hg5 mi
4:00 AM64 °FPartly cloudy.6 mph94%30.01 "Hg5 mi
3:00 AM66 °FPartly cloudy.9 mph88%30.04 "Hg5 mi
2:00 AM66 °FPassing clouds.12 mph94%30.04 "Hg5 mi
1:00 AM66 °FPartly cloudy.10 mph94%30.07 "Hg5 mi
12:00 AM68 °FPartly cloudy.12 mph88%30.07 "Hg5 mi
Weather by CustomWeather, © 2016

See weather overviewHow to use our weather pages